Location: Colebrook
(42.0017°N, 73.0973°W)
Time: 13:36:55
(UTC-05:00)

Amateur Radio Satellites - All Passes

Search period start: 06 February 2016 13:06
Search period end: 07 February 2016 13:06
Location: Colebrook, 42.0017°N, 73.0973°W

Satellite Date Start Highest point End Downlink Frequencies (MHz)
Time Altitude Azimuth
ITAMSAT 1 06 Feb 13:09:07 13:14:00 43° 69° (ENE) 13:18:55 435.822/435.867
TISAT 1 06 Feb 13:10:05 13:14:14 63° 286° (WNW) 13:18:21 437.305
ITUPSAT 1 06 Feb 13:25:55 13:30:13 31° 97° (E) 13:34:29 437.325
JAS-2 06 Feb 13:33:30 13:40:56 48° 262° (W) 13:47:56 435.910
AO-7 06 Feb 13:34:28 13:41:57 38° 59° (ENE) 13:49:25 29.400- 29.500
BEESAT 06 Feb 13:36:54 13:41:26 41° 98° (E) 13:45:58 436.000
M-CUBED/EXP-1 PRIME 06 Feb 13:40:27 13:42:13 13° 61° (ENE) 13:43:57 437.505
RS-15 06 Feb 13:41:06 13:51:55 50° 317° (NW) 14:03:23 29.354- 29.394
Gurwin Techsat 1B 06 Feb 13:47:11 13:52:17 47° 261° (W) 13:57:25 435.225
DANDE 06 Feb 13:49:45 13:57:17 69° 265° (W) 14:03:05 436.750
Oscar 19 06 Feb 13:50:24 13:53:46 17° 269° (W) 13:57:07 437.125/150
CUSAT 1 06 Feb 13:51:00 13:56:42 35° 273° (W) 14:01:10 437.405
AUBIESAT-1 06 Feb 13:53:27 13:55:36 15° 62° (ENE) 13:57:42 437.475
YUBILEINY 06 Feb 14:05:09 14:13:51 56° 77° (ENE) 14:22:26 435.215
Cosmos 2491 06 Feb 14:10:39 14:17:49 30° 83° (E) 14:24:57 435.465 / 435.565
SO-50 06 Feb 14:12:32 14:17:21 64° 54° (NE) 14:22:00 436.795
Cosmos 2504 06 Feb 14:20:52 14:25:50 16° 58° (ENE) 14:30:37 435.465 / 435.565
SWISSCUBE 06 Feb 14:28:40 14:33:22 55° 288° (WNW) 14:38:02 437.505
STARS 06 Feb 14:39:05 14:41:09 13° 91° (E) 14:43:15 437.465
KKS-1 06 Feb 14:44:09 14:47:59 28° 96° (E) 14:51:47 437.445
ITAMSAT 1 06 Feb 14:49:33 14:53:38 23° 266° (W) 14:57:46 435.822/435.867
ITUPSAT 1 06 Feb 15:03:50 15:07:58 29° 293° (WNW) 15:12:05 437.325
HORYU 2 06 Feb 15:09:11 15:13:29 54° 73° (ENE) 15:17:49 437.375
M-CUBED/EXP-1 PRIME 06 Feb 15:12:57 15:16:37 45° 254° (WSW) 15:20:02 437.505
BEESAT 06 Feb 15:15:16 15:18:58 23° 295° (WNW) 15:22:40 436.000
AO-7 06 Feb 15:26:19 15:34:26 53° 258° (WSW) 15:42:36 29.400- 29.500
AUBIESAT-1 06 Feb 15:26:27 15:29:58 37° 255° (WSW) 15:33:18 437.475
DANDE 06 Feb 15:36:58 15:38:18 11° 288° (WNW) 15:39:37 436.750
MOZHAYETS 4 06 Feb 15:45:16 15:49:48 50° 100° (E) 15:54:17
ISS 06 Feb 15:47:05 15:48:27 12° 130° (SE) 15:49:50 145.825
SO-50 06 Feb 15:54:29 15:57:17 16° 252° (WSW) 16:00:02 436.795
RS-15 06 Feb 15:59:13 16:08:13 25° 349° (N) 16:17:34 29.354- 29.394
CUTE-I 06 Feb 15:59:33 16:02:58 18° 61° (ENE) 16:06:23 437.470
YUBILEINY 06 Feb 16:02:38 16:10:10 33° 276° (W) 16:17:40 435.215
Cosmos 2491 06 Feb 16:05:28 16:14:03 60° 283° (WNW) 16:22:39 435.465 / 435.565
Cubesat XI-IV 06 Feb 16:11:19 16:15:19 22° 63° (ENE) 16:19:20 437.490
Cosmos 2504 06 Feb 16:12:11 16:20:57 75° 80° (E) 16:29:09 435.465 / 435.565
STARS 06 Feb 16:13:36 16:17:53 57° 288° (WNW) 16:22:09 437.465
CUBESAT XI-V 06 Feb 16:17:45 16:19:11 11° 88° (E) 16:20:38 437.345
KKS-1 06 Feb 16:20:44 16:24:29 27° 293° (WNW) 16:28:13 437.445
BRITE-PL 06 Feb 16:28:47 16:32:31 18° 62° (ENE) 16:36:13 437.365/2234.400
HORYU 2 06 Feb 16:48:04 16:50:24 14° 269° (W) 16:52:44 437.375
LilacSat-2 06 Feb 17:06:43 17:10:25 49° 74° (ENE) 17:14:07 437.200
O/OREOS (USA 219) 06 Feb 17:07:06 17:10:25 19° 55° (NE) 17:13:43 437.305
ISS 06 Feb 17:21:15 17:24:30 78° 328° (NNW) 17:27:45 145.825
MOZHAYETS 4 06 Feb 17:23:29 17:26:35 18° 296° (WNW) 17:29:39
BEESAT 3 06 Feb 17:24:33 17:28:10 35° 116° (ESE) 17:31:50 437.485
AO-85 06 Feb 17:34:00 17:35:07 11° 26° (NNE) 17:36:13 145.980
CUTE-I 06 Feb 17:37:10 17:42:27 67° 258° (WSW) 17:47:47 437.470
BEESAT 2 06 Feb 17:41:52 17:45:31 35° 116° (ESE) 17:49:12 435.950
Cubesat XI-IV 06 Feb 17:49:51 17:55:01 51° 260° (W) 18:00:13 437.490
CUBESAT XI-V 06 Feb 17:52:23 17:57:07 75° 284° (WNW) 18:01:47 437.345
GOMX 1 06 Feb 17:52:28 17:57:44 50° 72° (ENE) 18:02:49 467.674
DOVE 4 06 Feb 17:53:46 17:58:05 28° 68° (ENE) 18:02:16 437.250
HO-68 06 Feb 17:55:34 18:01:17 27° 58° (ENE) 18:07:02 435.675
BRITE-PL 06 Feb 18:04:41 18:10:23 72° 259° (W) 18:16:02 437.365/2234.400
Cosmos 2504 06 Feb 18:06:59 18:13:20 23° 281° (W) 18:19:25 435.465 / 435.565
CANX-2 06 Feb 18:10:06 18:12:37 16° 65° (ENE) 18:15:10 2200.000
Cosmos 2491 06 Feb 18:10:12 18:13:03 12° 306° (NW) 18:15:53 435.465 / 435.565
RS-15 06 Feb 18:15:57 18:26:04 30° 24° (NNE) 18:36:24 29.354- 29.394
PCSat 06 Feb 18:26:27 18:28:21 12° 34° (NE) 18:30:15 145.827
STRAND 1 06 Feb 18:38:53 18:43:46 41° 98° (E) 18:48:36 437.568
LilacSat-2 06 Feb 18:43:40 18:45:01 12° 269° (W) 18:46:23 437.200
O/OREOS (USA 219) 06 Feb 18:45:40 18:50:05 48° 253° (WSW) 18:54:29 437.305
ISS 06 Feb 18:58:53 19:01:21 20° 345° (NNW) 19:03:50 145.825
CUTE 1.7 + AOD 2 06 Feb 18:59:38 19:03:39 46° 73° (ENE) 19:07:43 437.475
BEESAT 3 06 Feb 19:02:46 19:06:01 24° 314° (NW) 19:09:18 437.485
COMPASS 1 06 Feb 19:05:41 19:09:18 30° 70° (ENE) 19:12:57 437.405
AIST 2 06 Feb 19:07:49 19:11:28 30° 115° (ESE) 19:15:09 435.215
AO-85 06 Feb 19:12:13 19:17:10 41° 49° (NE) 19:21:44 145.980
SEEDS 06 Feb 19:12:38 19:16:39 49° 73° (ENE) 19:20:42 437.485
CINEMA 3 06 Feb 19:15:20 19:19:59 61° 74° (ENE) 19:24:26 145.822/145.860
BEESAT 2 06 Feb 19:20:11 19:23:30 24° 314° (NW) 19:26:49 435.950
ZACube-1 06 Feb 19:24:59 19:27:11 14° 64° (ENE) 19:29:21 437.345
GONETS M04 06 Feb 19:29:28 19:37:51 46° 74° (ENE) 19:46:12
PRISM 06 Feb 19:30:42 19:34:42 42° 99° (E) 19:38:39 437.425
DOVE 4 06 Feb 19:30:52 19:35:38 36° 263° (W) 19:40:13 437.250
GOMX 1 06 Feb 19:31:49 19:36:00 22° 268° (W) 19:40:05 467.674
Cosmos 2499 06 Feb 19:32:26 19:38:34 21° 62° (ENE) 19:44:21 435.465 / 435.565
FUNcube-1 06 Feb 19:35:23 19:38:08 17° 66° (ENE) 19:40:52 145.935
AAUSAT CUBESAT 2 06 Feb 19:37:29 19:41:31 56° 74° (ENE) 19:45:35 437.432
HO-68 06 Feb 19:41:21 19:48:27 65° 257° (WSW) 19:55:38 435.675
CANX-2 06 Feb 19:44:03 19:48:06 47° 261° (W) 19:52:12 2200.000
DELFI C3 06 Feb 19:47:15 19:49:42 16° 65° (ENE) 19:52:09 145.870
CUBEBUG 2 06 Feb 19:47:45 19:51:57 47° 73° (ENE) 19:56:03 437.445
UWE-3 06 Feb 19:56:30 20:00:35 42° 72° (ENE) 20:04:34 435.000/436.395/437.385
PCSat 06 Feb 20:07:40 20:13:01 55° 56° (NE) 20:18:19 145.827
Oscar 11 06 Feb 20:12:15 20:16:27 58° 74° (ENE) 20:20:42 145.826/435.025
HUMSAT D 06 Feb 20:15:26 20:17:38 14° 64° (ENE) 20:19:51 437.325/437.525
STRAND 1 06 Feb 20:18:30 20:22:42 26° 295° (WNW) 20:26:53 437.568
RS-15 06 Feb 20:28:59 20:41:10 72° 53° (NE) 20:53:30 29.354- 29.394
ISS 06 Feb 20:36:41 20:38:43 15° 5° (N) 20:40:46 145.825
CUTE 1.7 + AOD 2 06 Feb 20:37:22 20:39:46 15° 269° (W) 20:42:12 437.475
COMPASS 1 06 Feb 20:41:39 20:44:54 22° 266° (W) 20:48:11 437.405
AIST 2 06 Feb 20:46:18 20:49:58 28° 312° (NW) 20:53:37 435.215
SEEDS 06 Feb 20:50:27 20:52:39 14° 269° (W) 20:54:52 437.485
AO-85 06 Feb 20:53:12 20:57:29 28° 249° (WSW) 21:01:27 145.980
CINEMA 3 06 Feb 20:55:06 20:57:27 14° 269° (W) 20:59:45 145.822/145.860
ZACube-1 06 Feb 20:58:53 21:03:03 54° 260° (W) 21:07:09 437.345
VELOX 1 06 Feb 21:02:39 21:03:50 11° 60° (ENE) 21:05:01 145.980
PRISM 06 Feb 21:06:55 21:09:43 18° 295° (WNW) 21:12:29 437.425
FUNcube-1 06 Feb 21:10:03 21:14:05 42° 261° (W) 21:18:04 145.935
AIST 1 06 Feb 21:14:38 21:18:27 29° 75° (ENE) 21:22:13
AAUSAT CUBESAT 2 06 Feb 21:15:48 21:17:22 12° 270° (W) 21:18:57 437.432
AISAT 06 Feb 21:16:51 21:19:38 16° 63° (ENE) 21:22:24 437.250
DELFI C3 06 Feb 21:20:32 21:24:17 41° 262° (W) 21:28:05 145.870
ESTCUBE 1 06 Feb 21:23:38 21:26:56 20° 65° (ENE) 21:30:14 437.505/2401.250
Cosmos 2499 06 Feb 21:24:18 21:32:54 84° 264° (W) 21:40:47 435.465 / 435.565
CUBEBUG 2 06 Feb 21:26:14 21:28:49 15° 268° (W) 21:31:22 437.445
GONETS M04 06 Feb 21:26:33 21:34:32 41° 274° (W) 21:42:32
UWE-3 06 Feb 21:34:28 21:37:13 17° 267° (W) 21:39:58 435.000/436.395/437.385
ANTELSAT 06 Feb 21:37:31 21:41:05 24° 95° (E) 21:44:40 437.575/2403.000
TIGRISAT 06 Feb 21:45:33 21:49:17 28° 96° (E) 21:53:02 435.000
CUBEBUG 1 06 Feb 21:46:07 21:49:45 25° 67° (ENE) 21:53:22 437.445
UKube-1 06 Feb 21:48:37 21:52:22 29° 68° (ENE) 21:56:08 .
HUMSAT D 06 Feb 21:48:55 21:52:53 49° 260° (W) 21:56:52 437.325/437.525
Oscar 11 06 Feb 21:51:08 21:52:58 12° 270° (W) 21:54:48 145.826/435.025
PCSat 06 Feb 21:51:57 21:55:59 22° 254° (WSW) 22:00:02 145.827
DX 1 06 Feb 21:53:48 21:57:53 39° 70° (ENE) 22:01:59 434.975-435.025
SPROUT 06 Feb 22:05:43 22:08:03 14° 63° (ENE) 22:10:23 437.525
ISS 06 Feb 22:12:54 22:15:54 33° 25° (NNE) 22:18:53 145.825
50 SAT 06 Feb 22:15:37 22:19:18 75° 76° (ENE) 22:23:02 437.505
POPSAT HIP 1 06 Feb 22:20:38 22:23:23 17° 93° (E) 22:26:06 437.405
NANOSAT C BR1 06 Feb 22:27:21 22:30:25 19° 94° (E) 22:33:28 145.865
UNISAT 6 06 Feb 22:28:26 22:32:46 90° 104° (ESE) 22:37:09 437.425
DUCHIFAT 1 06 Feb 22:30:22 22:33:29 20° 94° (E) 22:36:35 145.980
QB50P1 06 Feb 22:33:07 22:36:30 23° 95° (E) 22:39:53 145.935-145.965
VELOX 1 06 Feb 22:35:10 22:39:38 83° 255° (WSW) 22:44:08 145.980
RS-15 06 Feb 22:42:18 22:52:48 36° 255° (WSW) 23:03:25 29.354- 29.394
AISAT 06 Feb 22:51:21 22:55:42 52° 260° (W) 23:00:06 437.250
AIST 1 06 Feb 22:52:26 22:55:55 23° 272° (W) 22:59:21
ESTCUBE 1 06 Feb 22:59:10 23:03:27 41° 261° (W) 23:07:46 437.505/2401.250
ANTELSAT 06 Feb 23:14:02 23:17:48 30° 291° (WNW) 23:21:36 437.575/2403.000
Cosmos 2499 06 Feb 23:19:56 23:24:31 16° 285° (WNW) 23:28:57 435.465 / 435.565
CUBEBUG 1 06 Feb 23:21:56 23:25:53 31° 263° (W) 23:29:52 437.445
TIGRISAT 06 Feb 23:22:20 23:25:53 26° 292° (WNW) 23:29:30 435.000
POLYITAN 1 06 Feb 23:23:38 23:27:51 89° 143° (SE) 23:32:03 437.675
QB50P2 06 Feb 23:24:28 23:28:43 86° 280° (W) 23:32:55 145.880/145.840
UKube-1 06 Feb 23:24:48 23:28:24 25° 264° (W) 23:32:01 .
DX 1 06 Feb 23:31:03 23:34:13 19° 266° (W) 23:37:24 434.975-435.025
SPROUT 06 Feb 23:39:20 23:43:34 55° 259° (W) 23:47:49 437.525
BUGSAT 1 06 Feb 23:46:32 23:50:38 78° 104° (ESE) 23:54:38 437.445
ISS 06 Feb 23:49:22 23:52:22 34° 222° (SW) 23:55:20 145.825
POPSAT HIP 1 06 Feb 23:55:24 23:59:21 41° 289° (WNW) 00:03:17 437.405
SWISSCUBE 06 Feb 23:59:08 00:02:37 21° 64° (ENE) 00:06:07 437.505
TISAT 1 07 Feb 00:01:46 00:06:00 83° 257° (WSW) 00:10:15 437.305
NANOSAT C BR1 07 Feb 00:02:27 00:06:16 35° 290° (WNW) 00:10:05 145.865
DUCHIFAT 1 07 Feb 00:05:30 00:09:17 34° 290° (WNW) 00:13:03 145.980
QB50P1 07 Feb 00:08:39 00:12:17 29° 291° (WNW) 00:15:56 145.935-145.965
Cosmos 2491 07 Feb 00:20:41 00:25:11 15° 57° (ENE) 00:29:39 435.465 / 435.565
Oscar 19 07 Feb 00:21:03 00:24:46 20° 92° (E) 00:28:27 437.125/150
ITUPSAT 1 07 Feb 00:32:59 00:37:23 38° 69° (ENE) 00:41:48 437.325
BEESAT 07 Feb 00:43:34 00:48:08 49° 71° (ENE) 00:52:45 436.000
JAS-2 07 Feb 00:44:27 00:48:56 23° 91° (E) 00:53:07 435.910
CUSAT 1 07 Feb 01:09:16 01:16:24 41° 89° (E) 01:23:51 437.405
DANDE 07 Feb 01:14:48 01:20:53 28° 83° (E) 01:27:35 436.750
YUBILEINY 07 Feb 01:18:09 01:19:49 11° 71° (ENE) 01:21:30 435.215
ITAMSAT 1 07 Feb 01:22:54 01:25:47 15° 90° (E) 01:28:39 435.822/435.867
SWISSCUBE 07 Feb 01:35:33 01:40:05 45° 261° (W) 01:44:41 437.505
STARS 07 Feb 01:36:34 01:38:49 14° 62° (ENE) 01:41:02 437.465
BEESAT 3 07 Feb 01:41:50 01:45:12 26° 47° (NE) 01:48:32 437.485
KKS-1 07 Feb 01:42:37 01:46:26 28° 68° (ENE) 01:50:14 437.445
Oscar 19 07 Feb 01:59:24 02:04:21 50° 289° (WNW) 02:09:17 437.125/150
BEESAT 2 07 Feb 01:59:51 02:03:16 26° 47° (NE) 02:06:38 435.950
Gurwin Techsat 1B 07 Feb 02:02:39 02:07:58 67° 102° (ESE) 02:13:16 435.225
ITUPSAT 1 07 Feb 02:11:33 02:15:19 23° 266° (W) 02:19:07 437.325
Cosmos 2491 07 Feb 02:15:03 02:23:48 71° 80° (E) 02:32:32 435.465 / 435.565
PHONESAT 2.4 07 Feb 02:22:57 02:25:54 31° 159° (SSE) 02:28:50 2401.200-2431.200
BEESAT 07 Feb 02:23:01 02:26:12 18° 268° (W) 02:29:24 436.000
JAS-2 07 Feb 02:28:48 02:34:23 46° 291° (WNW) 02:39:27 435.910
MOZHAYETS 4 07 Feb 02:47:24 02:51:46 49° 72° (ENE) 02:56:12
CUSAT 1 07 Feb 02:51:07 02:58:35 47° 287° (WNW) 03:06:23 437.405
DANDE 07 Feb 02:55:41 03:03:05 68° 283° (WNW) 03:11:34 436.750
ITAMSAT 1 07 Feb 03:00:31 03:05:45 69° 287° (WNW) 03:10:56 435.822/435.867
Cosmos 2504 07 Feb 03:04:11 03:06:17 11° 71° (ENE) 03:08:23 435.465 / 435.565
YUBILEINY 07 Feb 03:06:04 03:14:40 63° 91° (E) 03:23:20 435.215
STARS 07 Feb 03:10:18 03:14:40 62° 259° (WSW) 03:19:03 437.465
KKS-1 07 Feb 03:19:05 03:22:56 28° 264° (W) 03:26:48 437.445
BEESAT 3 07 Feb 03:19:28 03:22:57 30° 245° (WSW) 03:26:25 437.485
CUBESAT XI-V 07 Feb 03:21:32 03:23:38 13° 61° (ENE) 03:25:43 437.345
AO-7 07 Feb 03:27:10 03:35:18 54° 102° (ESE) 03:43:21 29.400- 29.500
AIST 2 07 Feb 03:28:44 03:32:11 25° 46° (NE) 03:35:37 435.215
BEESAT 2 07 Feb 03:37:38 03:41:10 30° 245° (WSW) 03:44:39 435.950
Gurwin Techsat 1B 07 Feb 03:43:57 03:47:22 17° 299° (WNW) 03:50:45 435.225
PHONESAT 2.4 07 Feb 03:59:42 04:02:57 66° 175° (S) 04:06:12 2401.200-2431.200
Cosmos 2491 07 Feb 04:13:11 04:19:46 25° 280° (W) 04:26:23 435.465 / 435.565
M-CUBED/EXP-1 PRIME 07 Feb 04:26:15 04:29:34 67° 290° (WNW) 04:33:01 437.505
MOZHAYETS 4 07 Feb 04:26:21 04:29:14 16° 269° (W) 04:32:07
SO-50 07 Feb 04:28:06 04:31:35 20° 110° (ESE) 04:35:06 436.795
HORYU 2 07 Feb 04:36:01 04:40:28 78° 285° (WNW) 04:44:54 437.375
AUBIESAT-1 07 Feb 04:39:04 04:42:23 56° 290° (WNW) 04:45:50 437.475
CUSAT 1 07 Feb 04:42:39 04:42:58 10° 308° (NW) 04:43:16 437.405
DANDE 07 Feb 04:43:16 04:47:49 16° 305° (NW) 04:52:36 436.750
Cosmos 2504 07 Feb 04:49:22 04:57:40 62° 92° (E) 05:06:23 435.465 / 435.565
CUBESAT XI-V 07 Feb 04:55:42 05:00:22 75° 257° (WSW) 05:05:07 437.345
YUBILEINY 07 Feb 05:04:39 05:12:03 30° 293° (WNW) 05:19:33 435.215
AIST 2 07 Feb 05:06:59 05:10:45 35° 244° (WSW) 05:14:29 435.215
AO-7 07 Feb 05:20:21 05:27:46 37° 301° (WNW) 05:35:09 29.400- 29.500
PHONESAT 2.4 07 Feb 05:36:55 05:40:06 50° 193° (SSW) 05:43:18 2401.200-2431.200
CUTE-I 07 Feb 05:53:49 05:59:01 48° 99° (E) 06:04:11 437.470
STRAND 1 07 Feb 05:55:01 06:00:02 61° 72° (ENE) 06:05:06 437.568
GOMX 1 07 Feb 05:56:48 05:58:21 12° 88° (E) 05:59:53 467.674
Cubesat XI-IV 07 Feb 06:06:25 06:11:46 62° 102° (ESE) 06:17:05 437.490
SO-50 07 Feb 06:06:51 06:11:40 56° 307° (NW) 06:16:34 436.795
BRITE-PL 07 Feb 06:10:22 06:14:52 36° 96° (E) 06:19:00 437.365/2234.400
LilacSat-2 07 Feb 06:13:55 06:17:42 73° 102° (ESE) 06:21:27 437.200
PRISM 07 Feb 06:20:40 06:24:22 32° 69° (ENE) 06:28:07 437.425
Cosmos 2504 07 Feb 06:44:18 06:51:39 31° 292° (WNW) 06:59:17 435.465 / 435.565
HO-68 07 Feb 07:09:22 07:15:04 25° 93° (E) 07:20:43 435.675
CINEMA 3 07 Feb 07:11:45 07:13:21 12° 90° (E) 07:14:56 145.822/145.860
PHONESAT 2.4 07 Feb 07:14:46 07:16:59 17° 208° (SSW) 07:19:12 2401.200-2431.200
O/OREOS (USA 219) 07 Feb 07:20:31 07:23:32 18° 100° (E) 07:26:33 437.305
CANX-2 07 Feb 07:28:52 07:32:33 27° 95° (E) 07:36:13 2200.000
DOVE 4 07 Feb 07:29:27 07:33:44 60° 101° (E) 07:37:50 437.250
GOMX 1 07 Feb 07:32:31 07:37:02 62° 286° (WNW) 07:41:14 467.674
CUTE-I 07 Feb 07:34:33 07:38:45 24° 296° (WNW) 07:42:57 437.470
STRAND 1 07 Feb 07:36:30 07:39:37 16° 269° (W) 07:42:46 437.568
Cubesat XI-IV 07 Feb 07:47:40 07:51:21 19° 299° (WNW) 07:55:00 437.490
BRITE-PL 07 Feb 07:49:14 07:53:07 24° 295° (WNW) 07:56:47 437.365/2234.400
SO-50 07 Feb 07:51:17 07:53:15 12° 328° (NNW) 07:55:15 436.795
PRISM 07 Feb 07:56:35 07:59:46 21° 266° (W) 08:02:58 437.425
Oscar 11 07 Feb 08:02:02 08:02:39 10° 89° (E) 08:03:17 145.826/435.025
Cosmos 2499 07 Feb 08:11:24 08:16:10 16° 75° (ENE) 08:21:00 435.465 / 435.565
CUTE 1.7 + AOD 2 07 Feb 08:19:38 08:23:56 90° 267° (W) 08:28:14 437.475
COMPASS 1 07 Feb 08:23:04 08:27:14 54° 100° (E) 08:31:22 437.405
GONETS M04 07 Feb 08:30:55 08:39:11 51° 89° (E) 08:47:28
SEEDS 07 Feb 08:31:33 08:35:49 88° 289° (WNW) 08:40:05 437.485
ANTELSAT 07 Feb 08:37:07 08:40:33 23° 67° (ENE) 08:43:57 437.575/2403.000
TIGRISAT 07 Feb 08:44:52 08:48:29 27° 68° (ENE) 08:52:05 435.000
CINEMA 3 07 Feb 08:46:48 08:50:52 54° 286° (WNW) 08:54:55 145.822/145.860
ZACube-1 07 Feb 08:46:59 08:50:31 25° 95° (E) 08:54:04 437.345
AAUSAT CUBESAT 2 07 Feb 08:54:44 08:58:57 80° 284° (WNW) 09:03:09 437.432
HO-68 07 Feb 08:56:07 09:03:15 65° 291° (WNW) 09:10:20 435.675
FUNcube-1 07 Feb 08:57:31 09:01:17 31° 97° (E) 09:05:05 145.935
O/OREOS (USA 219) 07 Feb 08:58:17 09:02:33 44° 297° (WNW) 09:06:53 437.305
DELFI C3 07 Feb 08:58:27 09:01:44 23° 95° (E) 09:05:00 145.870
CANX-2 07 Feb 09:04:45 09:08:19 26° 291° (WNW) 09:11:54 2200.000
DOVE 4 07 Feb 09:09:01 09:10:54 13° 298° (WNW) 09:12:45 437.250
POPSAT HIP 1 07 Feb 09:14:17 09:16:39 15° 63° (ENE) 09:19:00 437.405
CUBEBUG 2 07 Feb 09:14:21 09:18:32 78° 285° (WNW) 09:22:45 437.445
NANOSAT C BR1 07 Feb 09:20:33 09:23:14 17° 65° (ENE) 09:25:56 145.865
UWE-3 07 Feb 09:21:37 09:25:49 89° 297° (WNW) 09:30:04 435.000/436.395/437.385
DUCHIFAT 1 07 Feb 09:23:19 09:26:03 17° 65° (ENE) 09:28:46 145.980
QB50P1 07 Feb 09:26:24 09:29:28 20° 66° (ENE) 09:32:33 145.935-145.965
UNISAT 6 07 Feb 09:27:31 09:31:53 82° 74° (ENE) 09:36:11 437.425
AO-85 07 Feb 09:28:54 09:31:30 14° 105° (ESE) 09:34:08 145.980
HUMSAT D 07 Feb 09:32:17 09:35:40 24° 95° (E) 09:39:04 437.325/437.525
Oscar 11 07 Feb 09:34:55 09:39:15 71° 286° (WNW) 09:43:35 145.826/435.025
AIST 1 07 Feb 09:45:17 09:48:10 17° 86° (E) 09:51:03
Cosmos 2499 07 Feb 09:59:09 10:07:47 80° 94° (E) 10:16:43 435.465 / 435.565
COMPASS 1 07 Feb 10:00:08 10:02:21 14° 296° (WNW) 10:04:36 437.405
ANTELSAT 07 Feb 10:13:15 10:17:08 31° 263° (W) 10:20:59 437.575/2403.000
POLYITAN 1 07 Feb 10:16:23 10:20:35 70° 76° (ENE) 10:24:49 437.675
QB50P2 07 Feb 10:17:10 10:21:24 73° 75° (ENE) 10:25:39 145.880/145.840
TIGRISAT 07 Feb 10:21:25 10:25:08 27° 264° (W) 10:28:48 435.000
ZACube-1 07 Feb 10:23:14 10:26:46 27° 291° (WNW) 10:30:21 437.345
VELOX 1 07 Feb 10:26:03 10:29:05 18° 93° (E) 10:32:06 145.980
GONETS M04 07 Feb 10:28:27 10:36:14 36° 290° (WNW) 10:44:07
DELFI C3 07 Feb 10:33:11 10:36:37 27° 291° (WNW) 10:40:03 145.870
FUNcube-1 07 Feb 10:34:08 10:37:23 22° 292° (WNW) 10:40:40 145.935
BUGSAT 1 07 Feb 10:36:17 10:40:25 55° 73° (ENE) 10:44:31 437.445
AISAT 07 Feb 10:41:35 10:45:22 27° 96° (E) 10:49:08 437.250
HO-68 07 Feb 10:46:27 10:49:36 13° 311° (NW) 10:52:44 435.675
POPSAT HIP 1 07 Feb 10:47:51 10:52:01 53° 260° (W) 10:56:10 437.405
PCSat 07 Feb 10:49:40 10:54:47 46° 113° (ESE) 10:59:58 145.827
ESTCUBE 1 07 Feb 10:51:09 10:55:25 38° 98° (E) 10:59:39 437.505/2401.250
RS-15 07 Feb 10:53:36 11:03:38 42° 108° (ESE) 11:14:07 29.354- 29.394
NANOSAT C BR1 07 Feb 10:54:34 10:58:38 45° 261° (W) 11:02:43 145.865
DUCHIFAT 1 07 Feb 10:57:23 11:01:26 44° 261° (W) 11:05:28 145.980
JAS-2 07 Feb 10:57:26 11:01:51 17° 57° (ENE) 11:06:05 435.910
QB50P1 07 Feb 11:01:04 11:05:00 37° 262° (W) 11:08:58 145.935-145.965
AO-85 07 Feb 11:05:53 11:11:15 88° 303° (WNW) 11:16:48 145.980
HUMSAT D 07 Feb 11:07:44 11:11:18 28° 290° (WNW) 11:14:54 437.325/437.525
CUBEBUG 1 07 Feb 11:09:44 11:13:57 44° 99° (E) 11:18:06 437.445
UKube-1 07 Feb 11:10:44 11:14:57 49° 100° (E) 11:19:08 .
DX 1 07 Feb 11:17:20 11:21:42 70° 102° (ESE) 11:26:01 434.975-435.025
50 SAT 07 Feb 11:20:40 11:24:29 83° 284° (WNW) 11:28:17 437.505
AIST 1 07 Feb 11:21:16 11:25:25 40° 283° (WNW) 11:29:36
SPROUT 07 Feb 11:25:37 11:29:04 23° 95° (E) 11:32:29 437.525
Oscar 19 07 Feb 11:37:59 11:42:29 31° 67° (ENE) 11:47:00 437.125/150
TISAT 1 07 Feb 11:46:55 11:49:14 14° 92° (E) 11:51:32 437.305
Gurwin Techsat 1B 07 Feb 11:47:10 11:50:10 15° 60° (ENE) 11:53:11 435.225
CUSAT 1 07 Feb 11:47:28 11:52:34 24° 63° (ENE) 11:56:42 437.405
Cosmos 2499 07 Feb 11:55:10 12:01:55 24° 296° (WNW) 12:08:50 435.465 / 435.565
DANDE 07 Feb 11:55:40 12:01:06 21° 59° (ENE) 12:05:44 436.750
POLYITAN 1 07 Feb 11:56:51 11:56:52 10° 271° (W) 11:56:53 437.675
VELOX 1 07 Feb 12:01:34 12:05:46 42° 289° (WNW) 12:09:55 145.980
BUGSAT 1 07 Feb 12:14:15 12:16:08 13° 269° (W) 12:17:59 437.445
AISAT 07 Feb 12:18:03 12:21:48 28° 292° (WNW) 12:25:33 437.250
ESTCUBE 1 07 Feb 12:28:31 12:31:59 22° 294° (WNW) 12:35:26 437.505/2401.250
PCSat 07 Feb 12:33:42 12:38:22 29° 311° (NW) 12:43:05 145.827
AO-7 07 Feb 12:37:57 12:43:05 18° 48° (NE) 12:48:14 29.400- 29.500
JAS-2 07 Feb 12:38:11 12:45:56 79° 74° (ENE) 12:53:06 435.910
ITAMSAT 1 07 Feb 12:40:48 12:44:56 25° 64° (ENE) 12:49:05 435.822/435.867
BEESAT 07 Feb 12:45:19 12:47:12 12° 90° (E) 12:49:05 436.000
CUBEBUG 1 07 Feb 12:46:57 12:49:53 18° 296° (WNW) 12:52:49 437.445
UKube-1 07 Feb 12:47:56 12:50:36 16° 297° (WNW) 12:53:16 .
AO-85 07 Feb 12:48:44 12:52:35 19° 323° (NW) 12:56:28 145.980
DX 1 07 Feb 12:55:35 12:57:18 12° 299° (WNW) 12:59:02 434.975-435.025
SO-50 07 Feb 12:58:13 13:02:06 23° 42° (NE) 13:05:52 436.795
